This demonstration page uses our WeatherBlox Daily Observations layout. Learn more.

40.92945, -100.16068

Hourly Observations for October 18, 2019

Temp ( °F °C ) Dew Point ( °F °C ) Humidity (%) Winds ( mph kmh ) Pressure ( in mb ) Visibility ( mi km ) Precip ( " mm )
12:15 am 00:15 Clear 59 15.2 38 3.6 46 46 SSE 14 22 29.55 1001 10 16.0934 0 0
12:35 am 00:35 Clear 58 14.6 38 3.5 48 48 SSE 14 22 29.56 1001 10 16.0934 0 0
12:55 am 00:55 Clear 58 14.3 38 3.6 49 49 SSE 13 20 29.56 1001 10 16.0934 0 0
1:15 am 01:15 Clear 57 14 38 3.6 50 50 SSE 14 22 29.56 1001 10 16.0934 0 0
1:35 am 01:35 Clear 57 13.7 38 3.5 50 50 SSE 15 24 29.55 1001 10 16.0934 0 0
1:55 am 01:55 Clear 57 13.7 38 3.5 50 50 SSE 13 20 29.54 1000 10 16.0934 0 0
2:15 am 02:15 Clear 56 13.2 38 3.3 51 51 SSE 14 22 29.53 1000 10 16.0934 0 0
2:35 am 02:35 Clear 56 13.3 38 3.3 51 51 SSE 14 22 29.52 1000 10 16.0934 0 0
2:55 am 02:55 Clear 56 13.2 38 3.2 51 51 SSE 15 24 29.52 1000 10 16.0934 0 0
3:15 am 03:15 Clear 56 13.2 38 3.2 51 51 SSE 17 28 29.5 999 10 16.0934 0 0
3:35 am 03:35 Clear 56 13.2 38 3.2 51 51 SSE 15 24 29.49 999 10 16.0934 0 0
3:55 am 03:55 Clear 55 13 38 3.1 51 51 SSE 18 30 29.48 998 10 16.0934 0 0
4:15 am 04:15 Clear 55 12.9 37 3 51 51 SSE 17 28 29.48 998 10 16.0934 0 0
4:35 am 04:35 Clear 55 12.5 37 2.8 52 52 SSE 16 26 29.48 998 10 16.0934 0 0
4:55 am 04:55 Clear 54 12.1 37 2.5 52 52 SSE 15 24 29.47 998 10 16.0934 0 0
5:15 am 05:15 Clear 53 11.8 36 2.2 52 52 SSE 14 22 29.46 998 10 16.0934 0 0
5:35 am 05:35 Clear 53 11.5 36 2 52 52 SSE 13 20 29.47 998 10 16.0934 0 0
5:55 am 05:55 Clear 52 11.2 35 1.8 53 53 SE 10 17 29.46 998 10 16.0934 0 0
6:15 am 06:15 Clear 51 10.5 35 1.7 55 55 SE 9 15 29.47 998 10 16.0934 0 0
6:35 am 06:35 Clear 51 10.7 35 1.6 54 54 SE 9 15 29.45 997 10 16.0934 0 0
6:55 am 06:55 Clear 51 10.7 35 1.5 53 53 SE 10 17 29.45 997 10 16.0934 0 0
7:15 am 07:15 Clear 50 9.9 35 1.5 56 56 SE 9 15 29.45 997 10 16.0934 0 0
7:35 am 07:35 Clear 50 10 35 1.5 56 56 SSE 9 15 29.45 997 10 16.0934 0 0
7:55 am 07:55 Sunny 50 9.8 35 1.5 57 57 SSE 9 15 29.45 997 10 16.0934 0 0
8:15 am 08:15 Sunny 49 9.2 35 1.7 60 60 SSE 12 19 29.46 998 10 16.0934 0 0
8:35 am 08:35 Sunny 49 9.6 36 2.2 60 60 S 8 13 29.45 997 10 16.0934 0 0
8:55 am 08:55 Sunny 51 10.6 37 2.6 58 58 S 7 11 29.45 997 10 16.0934 0 0
9:15 am 09:15 Sunny 53 11.7 38 3.3 57 57 S 8 13 29.44 997 10 16.0934 0 0
9:35 am 09:35 Sunny 55 12.7 38 3.6 54 54 SSE 13 20 29.41 996 10 16.0934 0 0
9:55 am 09:55 Sunny 57 13.7 39 3.7 51 51 SSW 12 19 29.42 996 10 16.0934 0 0
10:15 am 10:15 Sunny 57 14 37 2.7 47 47 SSW 12 19 29.42 996 10 16.0934 0 0
10:35 am 10:35 Sunny 58 14.5 37 3 46 46 SW 6 9 29.42 996 10 16.0934 0 0
10:55 am 10:55 Sunny 60 15.5 37 2.6 42 42 SSW 9 15 29.41 996 10 16.0934 0 0
11:15 am 11:15 Sunny 62 16.5 37 2.6 40 40 WSW 8 13 29.41 996 10 16.0934 0 0
11:35 am 11:35 Sunny 64 17.5 37 2.8 38 38 WSW 8 13 29.41 996 10 16.0934 0 0
11:55 am 11:55 Sunny 65 18.1 37 3 37 37 WSW 10 17 29.41 996 10 16.0934 0 0
12:15 pm 12:15 Sunny 67 19.2 38 3.5 35 35 W 12 19 29.4 996 10 16.0934 0 0
12:35 pm 12:35 Sunny 68 20.2 38 3.4 33 33 WNW 14 22 29.41 996 10 16.0934 0 0
12:55 pm 12:55 Sunny 69 20.6 38 3.5 33 33 WNW 15 24 29.42 996 10 16.0934 0 0
1:15 pm 13:15 Sunny 69 20.5 38 3.6 33 33 NW 20 31 29.42 996 10 16.0934 0 0
1:35 pm 13:35 Sunny 70 20.9 39 4 33 33 WNW 18 30 29.43 996 10 16.0934 0 0
1:55 pm 13:55 Sunny 71 21.6 40 4.2 32 32 W 16 26 29.41 996 10 16.0934 0 0
2:15 pm 14:15 Sunny 72 22.1 38 3.6 30 30 NW 13 20 29.42 996 10 16.0934 0 0
2:35 pm 14:35 Sunny 73 22.5 40 4.4 31 31 NNW 13 20 29.4 996 10 16.0934 0 0
2:55 pm 14:55 Sunny 72 22.3 40 4.2 31 31 NNW 12 19 29.41 996 10 16.0934 0 0
3:15 pm 15:15 Sunny 73 22.5 40 4.5 31 31 NW 17 28 29.41 996 10 16.0934 0 0
3:35 pm 15:35 Sunny 72 22.1 39 4.1 31 31 NNW 13 20 29.44 997 10 16.0934 0 0
3:55 pm 15:55 Sunny 72 22.3 39 4.1 31 31 N 16 26 29.43 997 10 16.0934 0 0
4:15 pm 16:15 Sunny 72 22 39 4.1 31 31 N 13 20 29.45 997 10 16.0934 0 0
4:35 pm 16:35 Sunny 71 21.5 39 3.8 31 31 NNW 14 22 29.47 998 10 16.0934 0 0
4:55 pm 16:55 Sunny 70 21.3 39 4 32 32 N 16 26 29.49 999 10 16.0934 0 0
5:15 pm 17:15 Sunny 70 21 39 4 33 33 N 14 22 29.5 999 10 16.0934 0 0
5:35 pm 17:35 Sunny 68 20 39 3.7 34 34 N 15 24 29.52 1000 10 16.0934 0 0
5:55 pm 17:55 Sunny 66 19 38 3.6 36 36 N 14 22 29.54 1000 10 16.0934 0 0
6:15 pm 18:15 Sunny 65 18.1 38 3.5 38 38 N 15 24 29.55 1001 10 16.0934 0 0
6:35 pm 18:35 Sunny 64 17.6 38 3.5 39 39 N 16 26 29.57 1001 10 16.0934 0 0
6:55 pm 18:55 Clear 62 16.7 38 3.5 42 42 N 17 28 29.58 1002 10 16.0934 0 0
7:15 pm 19:15 Clear 61 16.3 38 3.2 42 42 N 13 20 29.59 1002 10 16.0934 0 0
7:35 pm 19:35 Clear 61 15.9 38 3.2 43 43 N 12 19 29.61 1003 10 16.0934 0 0
7:55 pm 19:55 Partly Cloudy 60 15.3 38 3.3 45 45 N 13 20 29.63 1004 10 16.0934 0 0
8:15 pm 20:15 Cloudy 60 15.3 38 3.3 45 45 N 16 26 29.64 1004 10 16.0934 0 0
8:35 pm 20:35 Cloudy 59 14.8 38 3.5 47 47 N 18 30 29.66 1004 10 16.0934 0 0
8:55 pm 20:55 Cloudy 58 14.5 38 3.5 48 48 NNW 15 24 29.67 1005 10 16.0934 0 0
9:15 pm 21:15 Cloudy 58 14.3 38 3.3 48 48 N 10 17 29.69 1005 10 16.0934 0 0
9:35 pm 21:35 Cloudy 57 14 38 3.2 48 48 N 7 11 29.72 1006 10 16.0934 0 0
9:55 pm 21:55 Cloudy 57 13.7 38 3.2 49 49 NNW 7 11 29.74 1007 10 16.0934 0 0
10:15 pm 22:15 Cloudy 56 13.2 38 3.3 51 51 NNE 7 11 29.72 1007 10 16.0934 0 0
10:35 pm 22:35 Partly Cloudy 54 12 38 3.2 55 55 NE 5 7 29.73 1007 10 16.0934 0 0
10:55 pm 22:55 Mostly Cloudy 52 11.2 38 3.6 60 60 ENE 7 11 29.73 1007 10 16.0934 0 0
11:15 pm 23:15 Cloudy 53 11.9 38 3.5 57 57 NW 5 7 29.75 1008 10 16.0934 0 0
11:35 pm 23:35 Cloudy with Light Rain 52 11 40 4.6 65 65 WNW 5 7 29.76 1008 10 16.0934 0 0
11:55 pm 23:55 Cloudy 51 10.5 41 5.2 70 70 WNW 7 11 29.78 1008 10 16.0934 0 0

Powered by AerisWeather